Home   Weather   Funafuti   Past weeks

Flag for Tuvalu Past Weather in Funafuti, Tuvalu — Yesterday and Last 2 Weeks

Now
84 °F

Passing clouds.


Feels Like: 96 °F
Forecast: 79 / 86 °F
Wind: No wind

Location: Funafuti

Current Time: Apr 24, 2017 at 11:43:48 pm

Latest Report: Apr 24, 2017 at 10:00 pm


Visibility: N/A

Pressure: 29.83 "Hg

Humidity: 84%

Dew Point: 79 °F

Location of FunafutiLocation

Past Weather in Funafuti — Graph

°F

Funafuti Temperature Yesterday

Maximum temperature yesterday: 90 °F (at 11:00 am)
Minimum temperature yesterday: 82 °F (at 12:00 am)
Average temperature yesterday: 85 °F

High & Low Weather Summary for the Past Weeks

 TemperatureHumidityPressure
High90 °F (Apr 10, 10:00 am)100% (Apr 18, 5:00 pm)29.89 "Hg (Apr 18, 5:00 pm)
Low77 °F (Apr 14, 5:00 pm)62% (Apr 17, 5:00 pm)29.68 "Hg (Apr 10, 3:00 pm)
Average84 °F80%29.80 "Hg
* Reported Apr 9 10:00 pm — Apr 24 10:00 pm, Funafuti, Weather by CustomWeather, © 2017

Note: Actual official high and low records may vary slightly from our data, if they occured in-between our weather recording intervals... More about our weather records

Advertising

Funafuti Weather History for the Previous 24 Hours

Scroll right to see more
 ConditionsComfort  
Time TempWeatherWind HumidityBarometerVisibility
10:00 pm
Mon, Apr 24
84 °FPassing clouds.No wind84%29.83 "HgN/A
9:00 pm84 °FPassing clouds.1 mph84%29.83 "HgN/A
8:00 pm84 °FPassing clouds.5 mph84%29.83 "HgN/A
7:00 pm84 °FPassing clouds.5 mph79%29.80 "HgN/A
6:00 pm86 °FPassing clouds.2 mph79%29.77 "HgN/A
5:00 pm88 °FPassing clouds.6 mph75%29.80 "HgN/A
4:00 pm88 °FPassing clouds.7 mph75%29.80 "HgN/A
3:00 pm90 °FPassing clouds.6 mph71%29.74 "HgN/A
2:00 pm90 °FPassing clouds.6 mph75%29.77 "HgN/A
1:00 pm90 °FPassing clouds.6 mph79%29.77 "HgN/A
12:00 pm90 °FScattered showers. Sunny.No wind75%29.83 "HgN/A
11:00 am88 °FScattered showers. Scattered clouds.3 mph75%29.83 "HgN/A
10:00 am84 °FScattered showers. Broken clouds.7 mph84%29.86 "HgN/A
9:00 am88 °FBroken clouds.5 mph70%29.86 "HgN/A
8:00 am84 °FScattered showers. Broken clouds.No wind84%29.83 "HgN/A
7:00 am82 °FPassing clouds.No wind84%29.77 "HgN/A
6:00 am82 °FPassing clouds.3 mph84%29.77 "HgN/A
5:00 am82 °FPassing clouds.No wind84%29.77 "HgN/A
4:00 am82 °FScattered showers. Partly cloudy.No wind79%29.77 "HgN/A
3:00 am84 °FPassing clouds.7 mph84%29.77 "HgN/A
2:00 am82 °FPassing clouds.6 mph89%29.77 "HgN/A
1:00 am82 °FScattered showers. Partly cloudy.No wind100%29.80 "HgN/A
12:00 am84 °FScattered showers. Partly cloudy.10 mph89%29.83 "HgN/A
11:00 pm
Sun, Apr 23
84 °FPartly cloudy.2 mph84%29.83 "HgN/A
Weather by CustomWeather, © 2017

See weather overviewHow to use our weather pages